Location: *
(32.8140°S, 174.6161°E)
Time: 00:14:08
(UTC+00:00)

Cosmos 1151 Rocket - Pass Details

Date: 10 December 2019
Orbit: 591 x 617 km, 82.5° (Epoch: 17 January)

Event Time Altitude Azimuth Distance (km) Brightness Sun altitude
Exits shadow 16:03:20 16° 324° (NW) 1,556 4.5 -12.0°
Maximum altitude 16:06:19 40° 260° (W) 890 3.5 -11.5°
Drops below altitude 10° 16:10:24 10° 190° (S) 1,957 6.0 -10.8°
Sets 16:12:45 0° 182° (S) 2,871 7.0 -10.4°
